Voltar ao catálogo

STARLINK-1502

AtivoComunicaçõesVLEO
NORAD 45764·PAYLOAD·🇺🇸 United States

Lançado Jun 13, 2020 de Cape Canaveral Space Force Station

Loading…

Próximas Passagens (próximas 24 horas)

TLE

AtualizadoSource: CelesTrak SupGP

Época: Sep 14, 2026, 21:26 UTC

1 45764C 20038AL  26257.89354167  .00042828  00000+0  27279-3 0  2574
2 45764  53.0389   1.3085 0002162 318.4430 194.0932 15.75711188    10

Acompanhe STARLINK-1502 em tempo real com AllMySat

Download on the App Store